{"data":{"norad_id":25560,"intl_designator":"1998-071A","name":"SWAS","alt_names":[],"object_type":"PAYLOAD","status":"ACTIVE","operator":null,"country":"US","launch_date":"1998-12-06","launch_site_code":"WRAS","launch_vehicle":null,"mission":null,"orbit_class":"UNKNOWN","rcs_meters":1.8056,"size_class":null,"mass_kg":null,"dimensions":null,"purposes":["science"],"wikipedia_slug":null,"has_3d_model":false,"image_url":null,"decayed_at":null,"tle_current":{"epoch":"2026-09-19T21:15:15.485760Z","epoch_age_seconds":64280,"freshness":"FRESH","line1":"1 25560U 98071A   26262.88559590  .00002291  00000+0  14663-3 0  9996","line2":"2 25560  69.8974 343.2151 0002909 125.3792 234.7644 15.10123112511566","mean_motion":15.10123112,"eccentricity":0.0002909,"inclination_deg":69.8974,"raan_deg":343.2151,"arg_perigee_deg":125.3792,"mean_anomaly_deg":234.7644,"bstar":0.00014663,"rev_number":51156,"period_min":95.35646389074,"perigee_km":533.81293483314,"apogee_km":537.83547746287,"semimajor_km":6913.961206148,"source":"CELESTRAK","updated_at":"2026-09-20T09:00:47.139703Z"}}}